sat.trackr.live / text

‹ back to catalog

STARLINK-31331

NORAD 58946 · 2024-027R

PAYLOAD ACTIVE UNKNOWN

§ Identity

Operator
Country
US
Launch date
2024-02-10
Launch site
AFWTR
Launch vehicle
Mass (kg)
RCS (m²)

Purposes: comms

External: N2YO · Heavens-Above · Gunter

§ Orbital elements

Epoch: 2026-09-20T08:25:40.646496Z

Period
94.01 min
Inclination
53.1583°
Eccentricity
0.0001247
Mean motion
15.31680460 rev/d
Perigee alt
469.9 km
Apogee alt
471.7 km
Semi-major
6,848.9 km
B*
1.2575e-4
RAAN
123.8968°
Arg perigee
93.9020°
Mean anomaly
266.2124°
Rev number
14,715

§ Raw data

STARLINK-313311 58946U 24027R   26263.35116489  .00003537  00000+0  12575-3 0  99932 58946  53.1583 123.8968 0001247  93.9020 266.2124 15.31680460147158

JSON: /api/v1/satellites/58946 · /tle

For live sub-satellite position, see the globe view (requires WebGL).

§ Visibility from observer

Set your observer location to see the next 7 days of passes ≥ 10°. The values pass through the URL so the page stays shareable.

No JS? Fill the form by hand. The geolocation button needs JavaScript.